Time,TemperatureF,DewpointF,PressureIn,WindDirection,WindDirectionDegrees,WindSpeedMPH,WindSpeedGustMPH,Humidity,HourlyPrecipIn,Conditions,Clouds,dailyrainin,SoftwareType,DateUTC
2013-02-17 00:02:00,28.0,26.0,29.98,WNW,301,0.0,3.0,92,0.00,,,0.00,,2013-02-17 05:02:00,
2013-02-17 00:12:00,28.0,26.0,29.99,NW,319,0.0,0.0,93,0.00,,,0.21,,2013-02-17 05:12:00,
2013-02-17 00:22:00,28.0,26.0,29.99,NW,319,0.0,0.0,93,0.00,,,0.21,,2013-02-17 05:22:00,
2013-02-17 00:33:00,27.0,26.0,29.99,North,359,0.0,5.0,95,0.00,,,0.21,,2013-02-17 05:33:00,
2013-02-17 00:42:00,27.0,26.0,29.99,North,359,0.0,5.0,95,0.00,,,0.21,,2013-02-17 05:42:00,
2013-02-17 00:52:00,27.0,26.0,29.99,North,359,0.0,0.0,96,0.00,,,0.21,,2013-02-17 05:52:00,
2013-02-17 01:02:00,27.0,26.0,30.00,WNW,284,2.0,3.0,95,0.00,,,0.21,,2013-02-17 06:02:00,
2013-02-17 01:11:00,27.0,26.0,30.00,WNW,284,2.0,3.0,95,0.00,,,0.21,,2013-02-17 06:11:00,
2013-02-17 01:21:00,27.0,26.0,30.00,North,359,0.0,8.0,94,0.00,,,0.21,,2013-02-17 06:21:00,
2013-02-17 01:31:00,27.0,26.0,30.01,North,359,0.0,4.0,95,0.00,,,0.21,,2013-02-17 06:31:00,
2013-02-17 01:42:00,27.0,26.0,30.01,North,359,0.0,4.0,95,0.00,,,0.21,,2013-02-17 06:42:00,
2013-02-17 01:51:00,27.0,26.0,30.01,North,359,0.0,6.0,95,0.00,,,0.21,,2013-02-17 06:51:00,
2013-02-17 02:01:00,27.0,26.0,30.01,North,359,0.0,5.0,96,0.00,,,0.21,,2013-02-17 07:01:00,
2013-02-17 02:11:00,27.0,26.0,30.02,North,359,0.0,4.0,95,0.00,,,0.21,,2013-02-17 07:11:00,
2013-02-17 02:21:00,27.0,26.0,30.02,North,359,0.0,4.0,95,0.00,,,0.21,,2013-02-17 07:21:00,
2013-02-17 02:32:00,26.0,25.0,30.01,North,359,0.0,4.0,97,0.00,,,0.21,,2013-02-17 07:32:00,
2013-02-17 02:42:00,26.0,25.0,30.01,North,359,0.0,4.0,97,0.00,,,0.21,,2013-02-17 07:42:00,
2013-02-17 02:51:00,26.0,25.0,30.02,NNE,13,0.0,5.0,97,0.00,,,0.21,,2013-02-17 07:51:00,
2013-02-17 03:01:00,26.0,25.0,30.02,North,359,1.0,6.0,95,0.00,,,0.21,,2013-02-17 08:01:00,
2013-02-17 03:11:00,26.0,25.0,30.02,North,359,1.0,6.0,95,0.00,,,0.21,,2013-02-17 08:11:00,
2013-02-17 03:21:00,25.0,24.0,30.02,North,359,0.0,3.0,97,0.00,,,0.21,,2013-02-17 08:21:00,
2013-02-17 03:32:00,25.0,24.0,30.03,North,359,0.0,5.0,96,0.00,,,0.21,,2013-02-17 08:32:00,
2013-02-17 03:42:00,25.0,24.0,30.03,North,359,0.0,5.0,96,0.00,,,0.21,,2013-02-17 08:42:00,
2013-02-17 03:52:00,24.0,24.0,30.03,North,359,0.0,0.0,98,0.00,,,0.21,,2013-02-17 08:52:00,
2013-02-17 04:02:00,24.0,23.0,30.03,North,359,1.0,9.0,95,0.00,,,0.21,,2013-02-17 09:02:00,
2013-02-17 04:11:00,24.0,23.0,30.03,North,359,1.0,9.0,95,0.00,,,0.21,,2013-02-17 09:11:00,
2013-02-17 04:21:00,25.0,23.0,30.03,North,359,0.0,4.0,91,0.00,,,0.21,,2013-02-17 09:21:00,
2013-02-17 04:31:00,24.0,22.0,30.04,North,359,0.0,4.0,91,0.00,,,0.21,,2013-02-17 09:31:00,
2013-02-17 04:42:00,24.0,22.0,30.04,North,359,0.0,4.0,91,0.00,,,0.21,,2013-02-17 09:42:00,
2013-02-17 04:51:00,24.0,23.0,30.05,North,359,0.0,0.0,95,0.00,,,0.21,,2013-02-17 09:51:00,
2013-02-17 05:01:00,23.0,23.0,30.06,North,359,0.0,0.0,98,0.00,,,0.21,,2013-02-17 10:01:00,
2013-02-17 05:11:00,23.0,23.0,30.06,West,260,0.0,2.0,98,0.00,,,0.21,,2013-02-17 10:11:00,
2013-02-17 05:21:00,23.0,23.0,30.06,West,260,0.0,2.0,98,0.00,,,0.21,,2013-02-17 10:21:00,
2013-02-17 05:32:00,23.0,22.0,30.07,North,359,1.0,3.0,96,0.00,,,0.21,,2013-02-17 10:32:00,
2013-02-17 05:42:00,23.0,22.0,30.07,North,359,1.0,3.0,96,0.00,,,0.21,,2013-02-17 10:42:00,
2013-02-17 05:52:00,23.0,22.0,30.08,NNE,21,0.0,5.0,94,0.00,,,0.21,,2013-02-17 10:52:00,
2013-02-17 06:01:00,24.0,22.0,30.08,North,359,0.0,5.0,91,0.00,,,0.21,,2013-02-17 11:01:00,
2013-02-17 06:11:00,24.0,22.0,30.08,North,359,0.0,5.0,91,0.00,,,0.21,,2013-02-17 11:11:00,
2013-02-17 06:21:00,23.0,21.0,30.09,WSW,256,2.0,8.0,90,0.00,,,0.21,,2013-02-17 11:21:00,
2013-02-17 06:32:00,23.0,20.0,30.09,West,267,1.0,10.0,87,0.00,,,0.21,,2013-02-17 11:32:00,
2013-02-17 06:42:00,23.0,20.0,30.09,West,267,1.0,10.0,87,0.00,,,0.21,,2013-02-17 11:42:00,
2013-02-17 06:52:00,23.0,20.0,30.10,North,359,0.0,5.0,87,0.00,,,0.21,,2013-02-17 11:52:00,
2013-02-17 07:03:00,23.0,19.0,30.11,North,359,0.0,7.0,84,0.00,,,0.21,,2013-02-17 12:03:00,
2013-02-17 07:11:00,23.0,19.0,30.11,North,359,0.0,7.0,84,0.00,,,0.21,,2013-02-17 12:11:00,
2013-02-17 07:22:00,23.0,17.0,30.11,North,359,0.0,0.0,79,0.00,,,0.21,,2013-02-17 12:22:00,
2013-02-17 07:32:00,23.0,17.0,30.12,North,359,0.0,0.0,79,0.00,,,0.21,,2013-02-17 12:32:00,
2013-02-17 07:42:00,23.0,17.0,30.12,North,359,0.0,0.0,79,0.00,,,0.21,,2013-02-17 12:42:00,
2013-02-17 07:52:00,24.0,18.0,30.12,North,359,0.0,5.0,76,0.00,,,0.21,,2013-02-17 12:52:00,
2013-02-17 08:02:00,24.0,18.0,30.13,North,359,3.0,6.0,77,0.00,,,0.21,,2013-02-17 13:02:00,
2013-02-17 08:12:00,24.0,18.0,30.13,North,359,3.0,6.0,77,0.00,,,0.21,,2013-02-17 13:12:00,
2013-02-17 08:22:00,24.0,18.0,30.14,NW,307,1.0,6.0,76,0.00,,,0.21,,2013-02-17 13:22:00,
2013-02-17 08:32:00,25.0,19.0,30.15,NW,319,1.0,4.0,77,0.00,,,0.21,,2013-02-17 13:32:00,
2013-02-17 08:42:00,25.0,19.0,30.15,NW,319,1.0,4.0,77,0.00,,,0.21,,2013-02-17 13:42:00,
2013-02-17 08:51:00,27.0,19.0,30.15,North,7,0.0,6.0,72,0.00,,,0.21,,2013-02-17 13:51:00,
2013-02-17 09:01:00,28.0,19.0,30.16,West,274,0.0,7.0,68,0.00,,,0.21,,2013-02-17 14:01:00,
2013-02-17 09:11:00,28.0,19.0,30.16,West,274,0.0,7.0,68,0.00,,,0.21,,2013-02-17 14:11:00,
2013-02-17 09:21:00,30.0,20.0,30.16,North,359,1.0,5.0,67,0.00,,,0.21,,2013-02-17 14:21:00,
2013-02-17 09:32:00,31.0,20.0,30.16,North,359,0.0,0.0,63,0.00,,,0.21,,2013-02-17 14:32:00,
2013-02-17 09:42:00,31.0,20.0,30.16,North,359,0.0,0.0,63,0.00,,,0.21,,2013-02-17 14:42:00,
2013-02-17 09:52:00,32.0,21.0,30.16,North,359,0.0,6.0,64,0.01,,,0.21,,2013-02-17 14:52:00,
2013-02-17 10:02:00,32.0,20.0,30.17,NW,307,0.0,6.0,62,0.03,,,0.21,,2013-02-17 15:02:00,
2013-02-17 10:11:00,32.0,20.0,30.17,NW,307,0.0,6.0,62,0.03,,,0.21,,2013-02-17 15:11:00,
2013-02-17 10:21:00,32.0,19.0,30.17,WNW,290,0.0,9.0,59,0.05,,,0.21,,2013-02-17 15:21:00,
2013-02-17 10:32:00,34.0,21.0,30.17,North,359,0.0,0.0,58,0.06,,,0.21,,2013-02-17 15:32:00,
2013-02-17 10:42:00,34.0,21.0,30.17,North,359,0.0,0.0,58,0.06,,,0.21,,2013-02-17 15:42:00,
2013-02-17 10:52:00,33.0,19.0,30.17,North,359,0.0,0.0,57,0.05,,,0.21,,2013-02-17 15:52:00,
2013-02-17 11:01:00,34.0,20.0,30.17,North,359,0.0,0.0,57,0.03,,,0.21,,2013-02-17 16:01:00,
2013-02-17 11:12:00,34.0,20.0,30.17,North,359,0.0,0.0,57,0.03,,,0.21,,2013-02-17 16:12:00,
2013-02-17 11:21:00,34.0,20.0,30.17,North,359,0.0,0.0,55,0.02,,,0.21,,2013-02-17 16:21:00,
2013-02-17 11:32:00,35.0,20.0,30.17,NNW,338,0.0,10.0,54,0.02,,,0.21,,2013-02-17 16:32:00,
2013-02-17 11:42:00,35.0,20.0,30.17,NNW,338,0.0,10.0,54,0.02,,,0.21,,2013-02-17 16:42:00,
2013-02-17 11:51:00,36.0,22.0,30.17,North,359,2.0,10.0,56,0.03,,,0.21,,2013-02-17 16:51:00,
2013-02-17 12:02:00,37.0,21.0,30.18,NW,319,10.0,16.0,51,0.03,,,0.21,,2013-02-17 17:02:00,
2013-02-17 12:11:00,37.0,21.0,30.18,NW,319,10.0,16.0,51,0.03,,,0.21,,2013-02-17 17:11:00,
2013-02-17 12:21:00,37.0,21.0,30.17,NW,308,12.0,20.0,51,0.02,,,0.21,,2013-02-17 17:21:00,
2013-02-17 12:32:00,38.0,18.0,30.17,North,359,6.0,33.0,44,0.01,,,0.21,,2013-02-17 17:32:00,
2013-02-17 12:42:00,38.0,18.0,30.17,North,359,6.0,33.0,44,0.01,,,0.21,,2013-02-17 17:42:00,
2013-02-17 12:52:00,38.0,20.0,30.16,WNW,301,0.0,18.0,47,0.00,,,0.21,,2013-02-17 17:52:00,
2013-02-17 13:02:00,38.0,19.0,30.16,West,271,10.0,23.0,45,0.00,,,0.21,,2013-02-17 18:02:00,
2013-02-17 13:11:00,38.0,19.0,30.16,West,271,10.0,23.0,45,0.00,,,0.21,,2013-02-17 18:11:00,
2013-02-17 13:22:00,38.0,19.0,30.16,NW,308,8.0,16.0,46,0.00,,,0.21,,2013-02-17 18:22:00,
2013-02-17 13:33:00,38.0,19.0,30.16,West,263,10.0,22.0,45,0.00,,,0.21,,2013-02-17 18:33:00,
2013-02-17 13:42:00,38.0,19.0,30.16,West,263,10.0,22.0,45,0.00,,,0.21,,2013-02-17 18:42:00,
2013-02-17 13:52:00,39.0,19.0,30.15,NW,325,6.0,17.0,45,0.00,,,0.21,,2013-02-17 18:52:00,
2013-02-17 14:01:00,39.0,16.0,30.15,SW,222,9.0,22.0,39,0.00,,,0.21,,2013-02-17 19:01:00,
2013-02-17 14:11:00,39.0,16.0,30.15,SW,222,9.0,22.0,39,0.00,,,0.21,,2013-02-17 19:11:00,
2013-02-17 14:21:00,41.0,22.0,30.15,NW,308,7.0,20.0,47,0.00,,,0.21,,2013-02-17 19:21:00,
2013-02-17 14:32:00,40.0,18.0,30.15,WNW,300,8.0,14.0,40,0.00,,,0.21,,2013-02-17 19:32:00,
2013-02-17 14:42:00,40.0,18.0,30.15,WNW,300,8.0,14.0,40,0.00,,,0.21,,2013-02-17 19:42:00,
2013-02-17 14:52:00,42.0,20.0,30.15,WNW,291,5.0,21.0,41,0.01,,,0.21,,2013-02-17 19:52:00,
2013-02-17 15:02:00,41.0,17.0,30.15,WNW,287,13.0,18.0,37,0.01,,,0.21,,2013-02-17 20:02:00,
2013-02-17 15:11:00,41.0,17.0,30.15,WNW,287,13.0,18.0,37,0.01,,,0.21,,2013-02-17 20:11:00,
2013-02-17 15:21:00,42.0,20.0,30.15,WNW,293,2.0,11.0,41,0.01,,,0.21,,2013-02-17 20:21:00,
2013-02-17 15:32:00,43.0,19.0,30.15,WNW,287,7.0,13.0,37,0.01,,,0.21,,2013-02-17 20:32:00,
2013-02-17 15:42:00,43.0,19.0,30.15,WNW,287,7.0,13.0,37,0.01,,,0.21,,2013-02-17 20:42:00,
2013-02-17 15:52:00,42.0,16.0,30.15,NW,308,8.0,21.0,34,0.00,,,0.21,,2013-02-17 20:52:00,
2013-02-17 16:02:00,42.0,18.0,30.15,West,281,6.0,14.0,37,0.00,,,0.21,,2013-02-17 21:02:00,
2013-02-17 16:11:00,42.0,18.0,30.15,West,281,6.0,14.0,37,0.00,,,0.21,,2013-02-17 21:11:00,
2013-02-17 16:21:00,42.0,14.0,30.16,West,278,6.0,20.0,32,0.00,,,0.21,,2013-02-17 21:21:00,
2013-02-17 16:32:00,42.0,16.0,30.16,NW,312,8.0,19.0,35,0.00,,,0.21,,2013-02-17 21:32:00,
2013-02-17 16:42:00,42.0,16.0,30.16,NW,312,8.0,19.0,35,0.00,,,0.21,,2013-02-17 21:42:00,
2013-02-17 16:52:00,42.0,14.0,30.16,WNW,295,9.0,19.0,32,0.00,,,0.21,,2013-02-17 21:52:00,
2013-02-17 17:01:00,42.0,16.0,30.16,North,1,2.0,10.0,34,0.00,,,0.21,,2013-02-17 22:01:00,
2013-02-17 17:12:00,42.0,16.0,30.16,North,1,2.0,10.0,34,0.00,,,0.21,,2013-02-17 22:12:00,
2013-02-17 17:22:00,42.0,14.0,30.16,West,273,5.0,15.0,32,0.00,,,0.21,,2013-02-17 22:22:00,
2013-02-17 17:32:00,41.0,16.0,30.17,North,359,0.0,12.0,36,0.00,,,0.21,,2013-02-17 22:32:00,
2013-02-17 17:42:00,41.0,16.0,30.17,North,359,0.0,12.0,36,0.00,,,0.21,,2013-02-17 22:42:00,
2013-02-17 17:52:00,40.0,14.0,30.17,North,359,0.0,4.0,34,0.00,,,0.21,,2013-02-17 22:52:00,
2013-02-17 18:02:00,39.0,14.0,30.19,North,359,0.0,5.0,36,0.00,,,0.21,,2013-02-17 23:02:00,
2013-02-17 18:11:00,39.0,14.0,30.19,North,359,0.0,5.0,36,0.00,,,0.21,,2013-02-17 23:11:00,
2013-02-17 18:21:00,39.0,15.0,30.20,NNE,18,4.0,9.0,37,0.00,,,0.21,,2013-02-17 23:21:00,
2013-02-17 18:32:00,37.0,18.0,30.20,West,266,0.0,10.0,46,0.00,,,0.21,,2013-02-17 23:32:00,
2013-02-17 18:42:00,37.0,18.0,30.20,West,266,0.0,10.0,46,0.00,,,0.21,,2013-02-17 23:42:00,
2013-02-17 18:52:00,37.0,15.0,30.21,NW,315,0.0,5.0,40,0.00,,,0.21,,2013-02-17 23:52:00,
2013-02-17 19:01:00,37.0,16.0,30.21,West,263,0.0,4.0,41,0.00,,,0.21,,2013-02-18 00:01:00,
2013-02-17 19:11:00,37.0,16.0,30.21,West,263,0.0,4.0,41,0.00,,,0.21,,2013-02-18 00:11:00,
2013-02-17 19:22:00,35.0,19.0,30.22,West,263,0.0,0.0,52,0.00,,,0.21,,2013-02-18 00:22:00,
2013-02-17 19:32:00,33.0,21.0,30.23,West,263,0.0,0.0,60,0.00,,,0.21,,2013-02-18 00:32:00,
2013-02-17 19:41:00,33.0,21.0,30.23,West,263,0.0,0.0,60,0.00,,,0.21,,2013-02-18 00:41:00,
2013-02-17 19:52:00,32.0,20.0,30.23,West,263,0.0,0.0,61,0.00,,,0.21,,2013-02-18 00:52:00,
2013-02-17 20:01:00,32.0,19.0,30.23,West,263,0.0,0.0,57,0.00,,,0.21,,2013-02-18 01:01:00,
2013-02-17 20:12:00,32.0,19.0,30.23,West,263,0.0,0.0,57,0.00,,,0.21,,2013-02-18 01:12:00,
2013-02-17 20:21:00,32.0,19.0,30.23,West,263,0.0,0.0,57,0.00,,,0.21,,2013-02-18 01:21:00,
2013-02-17 20:32:00,32.0,17.0,30.24,West,263,0.0,0.0,53,0.00,,,0.21,,2013-02-18 01:32:00,
2013-02-17 20:42:00,32.0,17.0,30.24,West,263,0.0,0.0,53,0.00,,,0.21,,2013-02-18 01:42:00,
2013-02-17 20:51:00,31.0,19.0,30.25,West,263,0.0,0.0,60,0.00,,,0.21,,2013-02-18 01:51:00,
2013-02-17 21:02:00,31.0,18.0,30.25,West,263,0.0,0.0,59,0.00,,,0.21,,2013-02-18 02:02:00,
2013-02-17 21:11:00,31.0,18.0,30.25,West,263,0.0,0.0,59,0.00,,,0.21,,2013-02-18 02:11:00,
2013-02-17 21:21:00,31.0,19.0,30.25,West,263,0.0,0.0,60,0.00,,,0.21,,2013-02-18 02:21:00,
2013-02-17 21:32:00,30.0,18.0,30.26,West,263,0.0,0.0,61,0.00,,,0.21,,2013-02-18 02:32:00,
2013-02-17 21:42:00,30.0,18.0,30.26,West,263,0.0,0.0,61,0.00,,,0.21,,2013-02-18 02:42:00,
2013-02-17 21:52:00,31.0,17.0,30.26,West,263,0.0,0.0,56,0.00,,,0.21,,2013-02-18 02:52:00,
2013-02-17 22:01:00,31.0,18.0,30.27,WSW,240,1.0,4.0,58,0.00,,,0.21,,2013-02-18 03:01:00,
2013-02-17 22:11:00,31.0,18.0,30.27,WSW,240,1.0,4.0,58,0.00,,,0.21,,2013-02-18 03:11:00,
2013-02-17 22:21:00,30.0,19.0,30.27,WSW,246,0.0,3.0,63,0.00,,,0.21,,2013-02-18 03:21:00,
2013-02-17 22:32:00,31.0,18.0,30.28,WSW,246,0.0,0.0,57,0.00,,,0.21,,2013-02-18 03:32:00,
2013-02-17 22:42:00,31.0,18.0,30.28,WSW,246,0.0,0.0,57,0.00,,,0.21,,2013-02-18 03:42:00,
2013-02-17 22:51:00,30.0,18.0,30.28,WSW,246,0.0,0.0,61,0.00,,,0.21,,2013-02-18 03:51:00,
2013-02-17 23:01:00,31.0,18.0,30.29,WSW,246,0.0,0.0,57,0.00,,,0.21,,2013-02-18 04:01:00,
2013-02-17 23:11:00,31.0,18.0,30.29,WSW,246,0.0,0.0,57,0.00,,,0.21,,2013-02-18 04:11:00,
2013-02-17 23:21:00,29.0,18.0,30.29,WSW,246,0.0,0.0,62,0.00,,,0.21,,2013-02-18 04:21:00,
2013-02-17 23:32:00,29.0,19.0,30.29,WSW,246,0.0,0.0,67,0.00,,,0.21,,2013-02-18 04:32:00,
2013-02-17 23:42:00,29.0,19.0,30.29,WSW,246,0.0,0.0,67,0.00,,,0.21,,2013-02-18 04:42:00,
2013-02-17 23:51:00,29.0,16.0,30.29,WSW,246,0.0,0.0,57,0.00,,,0.21,,2013-02-18 04:51:00,